Regional Weather Roundup
Issued by NWS

Home | Current Version | Previous Version | Text Only | Print | Product List | Glossary On
Versions: 1 2 3 4 5 6 7 8 9 10 11 12 13 14 15 16 17 18 19 20 21 22 23 24 25 26 27 28 29 30 31 32 33 34 35 36 37 38 39 40 41 42 43 44 45 46 47 48 49 50
000
ASUS43 KLOT 261321
RWRIL

ILLINOIS REGIONAL WEATHER ROUNDUP
NATIONAL WEATHER SERVICE CHICAGO/ROMEOVILLE IL
800 AM CDT SUN APR 26 2015

NOTE: "FAIR" INDICATES FEW OR NO CLOUDS BELOW 12,000 FEET WITH NO
SIGNIFICANT WEATHER AND/OR OBSTRUCTIONS TO VISIBILITY.

* THESE STATIONS ARE NOT UNDER NWS QUALITY CONTROL. THEY ALSO MAY NOT
  REPORT WEATHER SUCH AS PRECIPITATION OR FOG.

ILZ001-002-007-009-015-016-024-261400-
NORTHWEST ILLINOIS

CITY           SKY/WX    TMP DP  RH WIND       PRES   REMARKS
MOLINE         SUNNY     42  28  57 NE5       30.00R
STERLING*      SUNNY     43  30  61 NE10      30.01R
SAVANNA*       SUNNY     41  28  59 NE10      30.01R
$$

ILZ003-004-008-010-011-017-018-261400-
NORTH CENTRAL ILLINOIS

CITY           SKY/WX    TMP DP  RH WIND       PRES   REMARKS
ROCKFORD       MOSUNNY   40  27  59 N8        30.03R
FREEPORT*      SUNNY     38  30  72 NE9       30.04R WCI  31
ROCHELLE*      SUNNY     37  30  78 NE12      30.01R WCI  29
DE KALB*       SUNNY     37  30  76 NE10      30.00R WCI  30
PERU*          SUNNY     42  32  67 NE13      29.99R
$$

ILZ005-006-012>014-019>023-261400-
NORTHEAST ILLINOIS

CITY           SKY/WX    TMP DP  RH WIND       PRES   REMARKS
CHICAGO-OHARE  SUNNY     43  30  60 NE12      29.99R
CHICAGO-MIDWAY MOSUNNY   45  29  53 NE14      29.99R
AURORA         SUNNY     42  30  62 NE10      29.99R
LANSING*       SUNNY     43  31  62 NE10      29.98R
JOLIET*        SUNNY     44  33  64 NE9       29.99R
WAUKEGAN       SUNNY     42  32  67 N9        30.00R
DUPAGE AIRPORT SUNNY     42  30  62 NE10      29.99R
KANKAKEE*      SUNNY     42  34  73 NE12      29.97R
WHEELING       SUNNY     44  29  55 NE7       30.01R
MORRIS*        SUNNY     40  33  74 NE7       29.95R
ROMEOVILLE*    SUNNY     42  32  66 NE10      29.99R
NORTHERLY ISL    N/A     42  33  70 MISG        N/A
$$

LMZ740>746-261400-
SOUTHERN LAKE MICHIGAN

STATION/POSITION SKY/WX   TEMP    WIND        PRES    VSBY  WAVE
                          AIR SEA DIR/SP/G                  HT/PER
                          (F)     (DEG/KT/KT) (MB)    (MI)  (FT/S)
HARRISON CRIB              39      10/ 13/ 15   N/A
BURNHAM HARBOR             42      20/  9/ 16   N/A
CALUMET HARBOR             41      10/ 13/ 17   N/A
BURNS HARBOR               42      40/ 15/ 17 1014.6R
MICHIGAN CITY              42      30/ 14/ 16   N/A
MICHIGAN CITY 6N           42 45   60/ 12/ 14   N/A           4/ 6
$$

ILZ025>027-034>036-040-047-049-050-058-095>099-261400-
WEST-CENTRAL ILLINOIS

CITY           SKY/WX    TMP DP  RH WIND       PRES   REMARKS
QUINCY         CLOUDY    42  34  73 NE9       29.96R
GALESBURG*     SUNNY     40  32  71 NE8       29.99R
MACOMB*        SUNNY     42  34  71 NE9       30.00S
JACKSONVILLE*  CLOUDY    46  37  70 NE9       29.95R
PITTSFIELD*    SUNNY     46  38  75 NE9       29.96R
$$

ILZ028>032-037-038-041>044-048-051>054-059>061-261400-
CENTRAL ILLINOIS

CITY           SKY/WX    TMP DP  RH WIND       PRES   REMARKS
PONTIAC        SUNNY     42  37  82 NE15      29.97R
BLOOMINGTON    SUNNY     40  35  82 NE12      29.96R
DECATUR        CLOUDY    45  37  73 N12       29.94R
PEORIA         SUNNY     45  31  58 NE8       29.97R
LACON*         SUNNY     41  31  68 NE5       29.98R
LINCOLN*       SUNNY     45  37  72 N8        29.96R
SPRINGFIELD    SUNNY     44  35  70 NE12      29.96R
TAYLORVILLE    SUNNY     43  36  75 NE9       29.94R
$$

ILZ033-039-045-046-055>057-062-063-261400-
EAST-CENTRAL ILLINOIS

CITY           SKY/WX    TMP DP  RH WIND       PRES   REMARKS
CHAMPAIGN      MOSUNNY   43  36  76 N7        29.93R
DANVILLE*      SUNNY     41  37  84 NE8       29.90R
RANTOUL*       SUNNY     43  37  79 NE12      29.93R
MATTOON        SUNNY     45  35  68 NE13      29.90R
PARIS*         SUNNY     44  36  72 NE8       29.92R
$$

ILZ079-100>102-261400-
SOUTHWEST ILLINOIS

CITY           SKY/WX    TMP DP  RH WIND       PRES   REMARKS
ALTON          SUNNY     46  39  76 N14       29.91R
BELLEVILLE     CLOUDY    47  43  84 N9        29.88R
CAHOKIA*       CLOUDY    48  40  73 N13       29.90R
SPARTA*        CLOUDY    47  42  85 NE12G18   29.88S
$$

ILZ064>066-069>071-074>076-080>082-084>086-088>090-092>094-261400-
SOUTH-CENTRAL ILLINOIS

CITY           SKY/WX    TMP DP  RH WIND       PRES   REMARKS
CARBONDALE     CLOUDY    49  44  83 N10       29.85R
CAIRO*         CLOUDY    50  47  90 N14       29.83R
EFFINGHAM*     SUNNY     46  33  59 N6        29.91S
MARION         CLOUDY    48  45  87 N15       29.85R
MT. VERNON     CLOUDY    46  36  66 NE13      29.88R
CENTRALIA*     CLOUDY    47  36  65 NE9G17    29.88R
SALEM*         PTSUNNY   49  36  61 NE9       29.89R
METROPOLIS*    CLOUDY    49  49  99 N5        29.83R FOG
$$

ILZ067-068-072-073-078-083-087-091-261400-
SOUTHEAST ILLINOIS

CITY           SKY/WX    TMP DP  RH WIND       PRES   REMARKS
LAWRENCEVILLE  MOSUNNY   47  36  65 NE17      29.88R
FLORA*         CLOUDY    46  34  62 NE9G17    29.89R
FAIRFIELD*     CLOUDY    47  39  73 N13       29.86R
HARRISBURG*    CLOUDY    48  45  88 NE15G21   29.86R
ROBINSON*      SUNNY     46  36  66 NE12G17   29.89S
CARMI*         CLOUDY    48  37  65 N16       29.85S
$$

ABBREVIATIONS USED IN REMARKS
   TC - TEMPERATURE IN CELSIUS
  WCI - WIND CHILL INDEX
   HX - HEAT INDEX
  VSB - VISIBILITY
$$



USA.gov is the U.S. government's official web portal to all federal, state and local government web resources and services.